Airfield :
LOGIN :

Register | Disclaimer

   EN    FR    IT 

 










Legend :    VFR   Marginal VFR   IFR   Intensive IFR   Very Intensive IFR
Visi :
Ceiling :
>= 8 km
>= 3000ft
5 to 8 km
1000 to 3000 ft
1500m to 5 km
500 to 1000 ft
800 to 1500m
200 to 500 ft
< 800m
< 200 ft
Symbols :   Thunderstorms  Fog  Heavy snow  Heavy precipitations  Wind > 20 kt
SIGMETs :     Misc.  Thunderstorms  Icing  Turbulence  Mountain Waves  Volcanic Ashes







- Airport Elevation : 26 ft
- IATA code : BIA
- Download approach charts


LFKB - Bastia

CURRENT METAR :
  • 191030Z AUTO 09005KT 040V150 CAVOK 14/07 Q1023 NOSIG

EXPIRED METARs :
  • 191000Z AUTO 15005KT 110V210 CAVOK 13/06 Q1023 NOSIG
  • 190930Z AUTO 19004KT 150V240 CAVOK 12/05 Q1023 NOSIG
  • 190900Z AUTO 21004KT 170V240 CAVOK 12/05 Q1023 NOSIG
  • 190830Z AUTO 22005KT CAVOK 10/05 Q1023 BECMG 14010KT
  • 190800Z AUTO 23005KT CAVOK 09/05 Q1023 BECMG 14010KT

TAF TAF LFKB
Valid from the 19 at 09:00 until the 20 at 09:00 UTC


190800Z 1909/2009 14008KT CAVOK TX15/1913Z TN04/2004Z
TEMPO 1909/1915 BKN025
BECMG 1916/1918 24003KT
TEMPO 1918/2009 BKN025
ATIS : +33 4 95 59 19 40
No reported NOTAMs for that airfield.



MET'MAP, your aeronautical weather chart ! - Copyright ORBIFLY December 2007 - Disclaimer

ORBIFLY MET'MAP TEAM :

Programming & Development : Alexandra Zaïnal
Concept & Development : Baudouin d'Aumeries
Co-Development & Prog : Marc-Olivier Méhu
Technical & hardware support : Manuel Goepfert

Contact : metmap@orbifly.com




SOURCES & CREDITS :

   NOAA